RYR57PQ EGSS-EPGD

Flight info

Callsign RYR57PQ
Flight time 1h 42m
Altitude 39000
Route CLN P44 SOMVA DCT MAVAS DCT PETIK DCT ANDIK DCT MALYK DCT LUWIL DCT BINKA DCT LUXAL L730 KOSEX
Aircraft B38M/M-SDE1FGHILORVWXY/HB1

Departure

Time 2026-05-06 03:35
Airport London Stansted Airport (EGSS)

Arrival

Time 2026-05-06 05:17
Airport Gdańsk Lech Wałęsa Airport (EPGD)
Time Latitude Longitude Altitude Speed Heading
2026-05-06 03:19 51.89028 0.25699 361 ft 0 kts 43°
2026-05-06 03:25 51.89027 0.25698 351 ft 2 kts 43°
2026-05-06 03:25 51.89011 0.25675 361 ft 2 kts 43°
2026-05-06 03:25 51.88994 0.25657 359 ft 4 kts 353°
2026-05-06 03:25 51.88977 0.25676 361 ft 4 kts 313°
2026-05-06 03:26 51.88968 0.25693 356 ft 0 kts 313°
2026-05-06 03:28 51.88971 0.25687 357 ft 3 kts 313°
2026-05-06 03:28 51.89021 0.25599 351 ft 16 kts 313°
2026-05-06 03:28 51.89108 0.25449 351 ft 20 kts 313°
2026-05-06 03:29 51.89173 0.25300 351 ft 13 kts 268°
2026-05-06 03:29 51.89110 0.25178 351 ft 18 kts 223°
2026-05-06 03:29 51.88987 0.24993 354 ft 29 kts 223°
2026-05-06 03:29 51.88852 0.24791 351 ft 23 kts 223°
2026-05-06 03:30 51.88728 0.24605 356 ft 25 kts 223°
2026-05-06 03:30 51.88598 0.24411 351 ft 23 kts 222°
2026-05-06 03:30 51.88484 0.24240 355 ft 23 kts 223°
2026-05-06 03:30 51.88361 0.24052 351 ft 25 kts 222°
2026-05-06 03:31 51.88225 0.23850 354 ft 28 kts 223°
2026-05-06 03:31 51.88080 0.23634 351 ft 29 kts 223°
2026-05-06 03:31 51.87948 0.23435 359 ft 26 kts 223°
2026-05-06 03:31 51.87825 0.23250 353 ft 23 kts 223°
2026-05-06 03:32 51.87734 0.23101 355 ft 12 kts 245°
2026-05-06 03:32 51.87763 0.22979 356 ft 14 kts 314°
2026-05-06 03:32 51.87753 0.22846 355 ft 15 kts 223°
2026-05-06 03:32 51.87652 0.22694 354 ft 26 kts 223°
2026-05-06 03:33 51.87508 0.22477 354 ft 30 kts 223°
2026-05-06 03:33 51.87403 0.22294 348 ft 15 kts 252°
2026-05-06 03:33 51.87434 0.22142 338 ft 17 kts 313°
2026-05-06 03:33 51.87513 0.22033 338 ft 11 kts 352°
2026-05-06 03:34 51.87586 0.22106 337 ft 17 kts 43°
2026-05-06 03:34 51.87801 0.22426 348 ft 76 kts 43°
2026-05-06 03:34 51.88344 0.23243 346 ft 135 kts 42°
2026-05-06 03:34 51.89113 0.24406 599 ft 159 kts 41°
2026-05-06 03:35 51.89911 0.25658 1354 ft 156 kts 41°
2026-05-06 03:35 51.90695 0.26853 2192 ft 155 kts 40°
2026-05-06 03:35 51.91442 0.28273 2766 ft 183 kts 60°
2026-05-06 03:35 51.91725 0.30439 3230 ft 213 kts 89°
2026-05-06 03:36 51.91277 0.32857 3394 ft 237 kts 112°
2026-05-06 03:36 51.90548 0.35320 3505 ft 251 kts 112°
2026-05-06 03:36 51.89778 0.37946 4089 ft 260 kts 112°
2026-05-06 03:36 51.88988 0.40650 5050 ft 272 kts 112°
2026-05-06 03:37 51.88160 0.43470 6046 ft 279 kts 113°
2026-05-06 03:37 51.87320 0.46338 7061 ft 285 kts 113°
2026-05-06 03:37 51.86469 0.49242 8129 ft 286 kts 113°
2026-05-06 03:37 51.85613 0.52159 9211 ft 289 kts 113°
2026-05-06 03:38 51.84744 0.55118 10166 ft 293 kts 114°
2026-05-06 03:38 51.83859 0.58133 10972 ft 303 kts 114°
2026-05-06 03:38 51.83117 0.61411 11477 ft 319 kts 98°
2026-05-06 03:38 51.83065 0.65063 12053 ft 332 kts 85°
2026-05-06 03:39 51.83179 0.68805 12712 ft 344 kts 85°
2026-05-06 03:39 51.83509 0.72668 13451 ft 350 kts 72°
2026-05-06 03:39 51.84188 0.76471 14230 ft 355 kts 73°
2026-05-06 03:39 51.84849 0.80353 14978 ft 361 kts 73°
2026-05-06 03:40 51.85510 0.84288 15767 ft 365 kts 74°
2026-05-06 03:40 51.86175 0.88279 16523 ft 370 kts 74°
2026-05-06 03:40 51.86847 0.92329 17267 ft 375 kts 74°
2026-05-06 03:40 51.87526 0.96425 18017 ft 379 kts 74°
2026-05-06 03:41 51.88211 1.00578 18672 ft 384 kts 75°
2026-05-06 03:41 51.88900 1.04761 19341 ft 386 kts 75°
2026-05-06 03:41 51.89594 1.08984 19969 ft 390 kts 75°
2026-05-06 03:41 51.90294 1.13254 20585 ft 394 kts 75°
2026-05-06 03:42 51.90996 1.17551 21217 ft 397 kts 75°
2026-05-06 03:42 51.91705 1.21901 21804 ft 401 kts 75°
2026-05-06 03:42 51.92420 1.26294 22439 ft 404 kts 75°
2026-05-06 03:42 51.93138 1.30722 23005 ft 409 kts 75°
2026-05-06 03:43 51.93861 1.35192 23600 ft 412 kts 75°
2026-05-06 03:43 51.94589 1.39700 24077 ft 415 kts 75°
2026-05-06 03:43 51.95321 1.44249 24561 ft 418 kts 75°
2026-05-06 03:43 51.96054 1.48817 25078 ft 420 kts 76°
2026-05-06 03:44 51.96790 1.53414 25552 ft 423 kts 76°
2026-05-06 03:44 51.97528 1.58034 26085 ft 424 kts 76°
2026-05-06 03:44 51.98259 1.62628 26457 ft 429 kts 76°
2026-05-06 03:44 51.99036 1.67299 26964 ft 430 kts 71°
2026-05-06 03:45 52.00343 1.71688 27357 ft 435 kts 61°
2026-05-06 03:45 52.01785 1.76021 27832 ft 437 kts 63°
2026-05-06 03:45 52.03220 1.80389 28220 ft 441 kts 62°
2026-05-06 03:45 52.04680 1.84792 28652 ft 443 kts 62°
2026-05-06 03:46 52.06144 1.89204 29059 ft 446 kts 62°
2026-05-06 03:46 52.07620 1.93658 29478 ft 448 kts 62°
2026-05-06 03:46 52.09101 1.98134 29874 ft 451 kts 63°
2026-05-06 03:46 52.10590 2.02640 30217 ft 453 kts 63°
2026-05-06 03:47 52.12085 2.07173 30542 ft 456 kts 63°
2026-05-06 03:47 52.13587 2.11736 30880 ft 458 kts 63°
2026-05-06 03:47 52.15094 2.16324 31185 ft 461 kts 63°
2026-05-06 03:47 52.16608 2.20938 31516 ft 463 kts 63°
2026-05-06 03:48 52.18127 2.25579 31824 ft 466 kts 63°
2026-05-06 03:48 52.19631 2.30182 32161 ft 467 kts 63°
2026-05-06 03:48 52.21161 2.34876 32446 ft 470 kts 63°
2026-05-06 03:48 52.22697 2.39592 32823 ft 470 kts 63°
2026-05-06 03:49 52.24226 2.44301 33228 ft 470 kts 63°
2026-05-06 03:49 52.25754 2.49013 33677 ft 468 kts 63°
2026-05-06 03:49 52.27277 2.53722 34089 ft 468 kts 63°
2026-05-06 03:49 52.28797 2.58424 34382 ft 468 kts 63°
2026-05-06 03:50 52.30306 2.63143 34698 ft 468 kts 65°
2026-05-06 03:50 52.31376 2.68140 35026 ft 466 kts 76°
2026-05-06 03:50 52.32265 2.73241 35306 ft 467 kts 75°
2026-05-06 03:50 52.33182 2.78350 35593 ft 468 kts 75°
2026-05-06 03:51 52.34084 2.83458 35909 ft 468 kts 75°
2026-05-06 03:51 52.34983 2.88580 36210 ft 468 kts 75°
2026-05-06 03:51 52.35878 2.93699 36504 ft 469 kts 75°
2026-05-06 03:51 52.36773 2.98830 36768 ft 469 kts 75°
2026-05-06 03:52 52.37667 3.03977 37007 ft 471 kts 75°
2026-05-06 03:52 52.38560 3.09125 37313 ft 470 kts 75°
2026-05-06 03:52 52.39452 3.14287 37531 ft 472 kts 75°
2026-05-06 03:52 52.40499 3.19372 37816 ft 472 kts 71°
2026-05-06 03:53 52.41593 3.24444 38030 ft 473 kts 71°
2026-05-06 03:53 52.42653 3.29454 38325 ft 472 kts 72°
2026-05-06 03:53 52.43720 3.34550 38531 ft 473 kts 72°
2026-05-06 03:53 52.44784 3.39651 38742 ft 473 kts 72°
2026-05-06 03:54 52.45845 3.44755 38873 ft 474 kts 72°
2026-05-06 03:54 52.46908 3.49874 38905 ft 474 kts 72°
2026-05-06 03:54 52.49026 3.60127 38903 ft 474 kts 72°
2026-05-06 03:55 52.51133 3.70374 38905 ft 473 kts 72°
2026-05-06 03:55 52.53232 3.80638 38908 ft 474 kts 72°
2026-05-06 03:56 52.55322 3.90911 38905 ft 474 kts 72°
2026-05-06 03:56 52.57389 4.01121 38894 ft 473 kts 73°
2026-05-06 03:57 52.59461 4.11411 38900 ft 474 kts 73°
2026-05-06 03:57 52.61481 4.21730 38889 ft 473 kts 78°
2026-05-06 03:58 52.62808 4.32319 38907 ft 473 kts 80°
2026-05-06 03:58 52.64101 4.42929 38897 ft 472 kts 80°
2026-05-06 03:59 52.65377 4.53545 38893 ft 472 kts 80°
2026-05-06 03:59 52.66645 4.64163 38889 ft 472 kts 80°
2026-05-06 04:00 52.67904 4.74796 38901 ft 473 kts 80°
2026-05-06 04:00 52.69158 4.85472 38897 ft 474 kts 80°
2026-05-06 04:01 52.70192 4.94349 38892 ft 474 kts 80°
2026-05-06 04:01 52.71625 5.06753 38884 ft 473 kts 81°
2026-05-06 04:02 52.72651 5.15697 38883 ft 473 kts 81°
2026-05-06 04:02 52.73858 5.26303 38881 ft 473 kts 81°
2026-05-06 04:03 52.75048 5.36986 38884 ft 473 kts 81°
2026-05-06 04:03 52.76232 5.47675 38885 ft 473 kts 81°
2026-05-06 04:04 52.77404 5.58362 38887 ft 471 kts 81°
2026-05-06 04:04 52.78560 5.68987 38882 ft 469 kts 81°
2026-05-06 04:05 52.79706 5.79608 38884 ft 470 kts 82°
2026-05-06 04:05 52.80843 5.90248 38879 ft 470 kts 82°
2026-05-06 04:06 52.81963 6.00815 38881 ft 469 kts 82°
2026-05-06 04:06 52.83080 6.11453 38867 ft 470 kts 82°
2026-05-06 04:07 52.84191 6.22128 38873 ft 471 kts 82°
2026-05-06 04:07 52.85291 6.32801 38866 ft 470 kts 82°
2026-05-06 04:08 52.86381 6.43469 38865 ft 470 kts 82°
2026-05-06 04:08 52.87461 6.54144 38853 ft 470 kts 82°
2026-05-06 04:09 52.88532 6.64827 38854 ft 471 kts 82°
2026-05-06 04:09 52.89597 6.75546 38853 ft 472 kts 82°
2026-05-06 04:10 52.90652 6.86273 38851 ft 472 kts 82°
2026-05-06 04:10 52.91698 6.97007 38848 ft 472 kts 82°
2026-05-06 04:11 52.92733 7.07738 38844 ft 472 kts 83°
2026-05-06 04:11 52.93759 7.18475 38835 ft 471 kts 83°
2026-05-06 04:12 52.94773 7.29200 38846 ft 471 kts 83°
2026-05-06 04:12 52.95779 7.39940 38845 ft 471 kts 83°
2026-05-06 04:13 52.96775 7.50683 38846 ft 471 kts 83°
2026-05-06 04:13 52.97765 7.61433 38848 ft 471 kts 83°
2026-05-06 04:14 52.98771 7.72099 38841 ft 471 kts 79°
2026-05-06 04:14 53.00253 7.82694 38858 ft 472 kts 79°
2026-05-06 04:15 53.01675 7.93353 38858 ft 473 kts 79°
2026-05-06 04:15 53.03078 8.04018 38853 ft 473 kts 80°
2026-05-06 04:16 53.04473 8.14699 38852 ft 472 kts 80°
2026-05-06 04:16 53.05857 8.25382 38850 ft 473 kts 80°
2026-05-06 04:17 53.07232 8.36080 38858 ft 473 kts 80°
2026-05-06 04:17 53.08588 8.46708 38840 ft 473 kts 80°
2026-05-06 04:18 53.09942 8.57403 38836 ft 472 kts 80°
2026-05-06 04:18 53.11287 8.68106 38827 ft 472 kts 80°
2026-05-06 04:19 53.12624 8.78830 38833 ft 473 kts 80°
2026-05-06 04:19 53.13952 8.89571 38827 ft 473 kts 80°
2026-05-06 04:20 53.15270 9.00313 38836 ft 473 kts 81°
2026-05-06 04:20 53.16579 9.11058 38833 ft 473 kts 81°
2026-05-06 04:21 53.17878 9.21816 38838 ft 473 kts 81°
2026-05-06 04:21 53.19158 9.32502 38842 ft 472 kts 81°
2026-05-06 04:22 53.20436 9.43259 38843 ft 472 kts 81°
2026-05-06 04:23 53.22333 9.59387 38847 ft 472 kts 81°
2026-05-06 04:23 53.23586 9.70149 38842 ft 472 kts 81°
2026-05-06 04:24 53.24829 9.80925 38842 ft 472 kts 81°
2026-05-06 04:24 53.26062 9.91695 38843 ft 472 kts 81°
2026-05-06 04:25 53.27286 10.02476 38844 ft 472 kts 81°
2026-05-06 04:25 53.28501 10.13270 38846 ft 472 kts 82°
2026-05-06 04:26 53.29704 10.24057 38842 ft 472 kts 82°
2026-05-06 04:26 53.30899 10.34859 38842 ft 473 kts 82°
2026-05-06 04:27 53.32086 10.45684 38847 ft 472 kts 82°
2026-05-06 04:27 53.33253 10.56427 38837 ft 472 kts 82°
2026-05-06 04:28 53.34418 10.67241 38838 ft 472 kts 82°
2026-05-06 04:28 53.35573 10.78066 38833 ft 472 kts 82°
2026-05-06 04:29 53.36718 10.88886 38822 ft 473 kts 82°
2026-05-06 04:29 53.37855 10.99738 38838 ft 474 kts 82°
2026-05-06 04:30 53.38985 11.10604 38836 ft 473 kts 82°
2026-05-06 04:30 53.40107 11.21476 38832 ft 473 kts 82°
2026-05-06 04:31 53.41221 11.32362 38841 ft 473 kts 83°
2026-05-06 04:31 53.41676 11.37455 39065 ft 468 kts 83°
2026-05-06 04:31 53.42257 11.42868 38801 ft 473 kts 82°
2026-05-06 04:32 53.43666 11.53602 38854 ft 474 kts 80°
2026-05-06 04:32 53.45079 11.64426 38828 ft 475 kts 80°
2026-05-06 04:33 53.46473 11.75262 38824 ft 475 kts 80°
2026-05-06 04:33 53.47850 11.86044 38825 ft 475 kts 80°
2026-05-06 04:34 53.49234 11.96964 38811 ft 475 kts 80°
2026-05-06 04:34 53.50601 12.07836 38822 ft 476 kts 80°
2026-05-06 04:35 53.51950 12.18651 38827 ft 476 kts 81°
2026-05-06 04:35 53.53299 12.29548 38828 ft 476 kts 81°
2026-05-06 04:36 53.54638 12.40454 38829 ft 476 kts 81°
2026-05-06 04:36 53.55965 12.51354 38830 ft 476 kts 81°
2026-05-06 04:37 53.57287 12.62295 38826 ft 478 kts 81°
2026-05-06 04:37 53.58591 12.73185 38831 ft 478 kts 81°
2026-05-06 04:38 53.59895 12.84154 38835 ft 478 kts 81°
2026-05-06 04:38 53.61188 12.95127 38834 ft 478 kts 81°
2026-05-06 04:39 53.62470 13.06104 38833 ft 478 kts 81°
2026-05-06 04:39 53.63744 13.17096 38837 ft 479 kts 81°
2026-05-06 04:40 53.65012 13.28135 38836 ft 480 kts 81°
2026-05-06 04:40 53.66270 13.39178 38831 ft 479 kts 81°
2026-05-06 04:41 53.67517 13.50228 38834 ft 480 kts 82°
2026-05-06 04:41 53.68755 13.61285 38839 ft 479 kts 82°
2026-05-06 04:42 53.69984 13.72365 38835 ft 481 kts 82°
2026-05-06 04:42 53.71208 13.83494 38833 ft 481 kts 82°
2026-05-06 04:43 53.72418 13.94603 38830 ft 481 kts 82°
2026-05-06 04:43 53.73619 14.05711 38838 ft 481 kts 82°
2026-05-06 04:44 53.74812 14.16825 38831 ft 481 kts 82°
2026-05-06 04:44 53.75943 14.27967 38828 ft 481 kts 85°
2026-05-06 04:45 53.76774 14.39145 38830 ft 483 kts 85°
2026-05-06 04:45 53.77640 14.50393 38831 ft 482 kts 85°
2026-05-06 04:46 53.78500 14.61638 38831 ft 482 kts 85°
2026-05-06 04:46 53.79350 14.72888 38830 ft 482 kts 85°
2026-05-06 04:47 53.80189 14.84136 38822 ft 482 kts 85°
2026-05-06 04:47 53.81018 14.95406 38830 ft 483 kts 85°
2026-05-06 04:48 53.81700 15.04775 38840 ft 482 kts 85°
2026-05-06 04:48 53.82508 15.16030 38832 ft 481 kts 85°
2026-05-06 04:49 53.83304 15.27266 38230 ft 480 kts 85°
2026-05-06 04:49 53.83700 15.32930 37052 ft 488 kts 86°
2026-05-06 04:49 53.84095 15.38589 36613 ft 480 kts 86°
2026-05-06 04:49 53.84482 15.44181 36004 ft 477 kts 86°
2026-05-06 04:50 53.84863 15.49741 35355 ft 475 kts 86°
2026-05-06 04:50 53.85241 15.55283 34698 ft 473 kts 87°
2026-05-06 04:50 53.85616 15.60819 34026 ft 472 kts 87°
2026-05-06 04:50 53.85989 15.66344 33230 ft 472 kts 87°
2026-05-06 04:51 53.86359 15.71880 32390 ft 473 kts 87°
2026-05-06 04:51 53.86727 15.77428 31531 ft 475 kts 87°
2026-05-06 04:51 53.87088 15.82913 30851 ft 473 kts 87°
2026-05-06 04:51 53.87449 15.88425 30274 ft 468 kts 88°
2026-05-06 04:52 53.87805 15.93900 29540 ft 466 kts 87°
2026-05-06 04:52 53.88157 15.99356 28830 ft 464 kts 87°
2026-05-06 04:52 53.88503 16.04770 28210 ft 460 kts 87°
2026-05-06 04:52 53.88844 16.10127 27614 ft 455 kts 87°
2026-05-06 04:53 53.89179 16.15445 27044 ft 451 kts 87°
2026-05-06 04:53 53.89509 16.20704 26510 ft 447 kts 87°
2026-05-06 04:53 53.89833 16.25918 25998 ft 443 kts 87°
2026-05-06 04:53 53.90152 16.31093 25521 ft 439 kts 87°
2026-05-06 04:54 53.90469 16.36234 24947 ft 438 kts 87°
2026-05-06 04:54 53.90783 16.41347 24483 ft 434 kts 87°
2026-05-06 04:54 53.91091 16.46416 23993 ft 430 kts 87°
2026-05-06 04:54 53.91456 16.51443 23452 ft 430 kts 80°
2026-05-06 04:55 53.92488 16.56191 22931 ft 430 kts 62°
2026-05-06 04:55 53.94040 16.60505 22354 ft 427 kts 59°
2026-05-06 04:55 53.95604 16.64693 21870 ft 423 kts 58°
2026-05-06 04:55 53.97189 16.68882 21358 ft 420 kts 58°
2026-05-06 04:56 53.98772 16.73034 20896 ft 416 kts 58°
2026-05-06 04:56 54.00343 16.77141 20435 ft 413 kts 58°
2026-05-06 04:56 54.01903 16.81222 19967 ft 410 kts 58°
2026-05-06 04:56 54.03448 16.85269 19512 ft 406 kts 58°
2026-05-06 04:57 54.04981 16.89287 19070 ft 403 kts 58°
2026-05-06 04:57 54.06501 16.93279 18634 ft 400 kts 59°
2026-05-06 04:57 54.08011 16.97250 18130 ft 400 kts 59°
2026-05-06 04:57 54.09303 17.01400 17699 ft 393 kts 74°
2026-05-06 04:58 54.09848 17.05883 17282 ft 385 kts 86°
2026-05-06 04:58 54.10171 17.10403 16891 ft 382 kts 87°
2026-05-06 04:58 54.10462 17.14894 16458 ft 380 kts 87°
2026-05-06 04:58 54.10735 17.19374 15972 ft 379 kts 87°
2026-05-06 04:59 54.10993 17.23816 15571 ft 375 kts 88°
2026-05-06 04:59 54.11240 17.28206 15036 ft 368 kts 88°
2026-05-06 04:59 54.11480 17.32540 14196 ft 366 kts 88°
2026-05-06 04:59 54.11715 17.36826 13502 ft 360 kts 88°
2026-05-06 05:00 54.11942 17.40965 12862 ft 351 kts 88°
2026-05-06 05:00 54.12164 17.45051 12284 ft 341 kts 88°
2026-05-06 05:00 54.12377 17.49002 11889 ft 327 kts 88°
2026-05-06 05:00 54.12579 17.52755 11722 ft 307 kts 87°
2026-05-06 05:01 54.12953 17.56286 11478 ft 301 kts 80°
2026-05-06 05:01 54.13393 17.59765 11136 ft 300 kts 81°
2026-05-06 05:01 54.13819 17.63236 10803 ft 298 kts 81°
2026-05-06 05:01 54.14233 17.66693 10482 ft 297 kts 81°
2026-05-06 05:02 54.14640 17.70141 10176 ft 295 kts 81°
2026-05-06 05:02 54.15037 17.73533 9999 ft 287 kts 81°
2026-05-06 05:02 54.15421 17.76828 9835 ft 280 kts 82°
2026-05-06 05:02 54.15796 17.80077 9534 ft 279 kts 82°
2026-05-06 05:03 54.16168 17.83313 9209 ft 277 kts 82°
2026-05-06 05:03 54.16538 17.86535 8890 ft 276 kts 82°
2026-05-06 05:03 54.16904 17.89719 8578 ft 270 kts 82°
2026-05-06 05:03 54.17286 17.92786 8304 ft 259 kts 75°
2026-05-06 05:04 54.18250 17.95316 7967 ft 257 kts 38°
2026-05-06 05:04 54.19833 17.96570 7788 ft 251 kts 12°
2026-05-06 05:04 54.21552 17.96698 7672 ft 250 kts 351°
2026-05-06 05:04 54.23236 17.95883 7673 ft 254 kts 340°
2026-05-06 05:05 54.24917 17.94920 7663 ft 256 kts 341°
2026-05-06 05:05 54.26607 17.93969 7631 ft 254 kts 341°
2026-05-06 05:05 54.28290 17.93029 7585 ft 254 kts 341°
2026-05-06 05:05 54.29951 17.92106 7537 ft 255 kts 341°
2026-05-06 05:06 54.31640 17.91172 7488 ft 255 kts 341°
2026-05-06 05:06 54.33330 17.90236 7442 ft 257 kts 341°
2026-05-06 05:06 54.35026 17.89302 7400 ft 254 kts 341°
2026-05-06 05:06 54.36708 17.88369 7374 ft 252 kts 342°
2026-05-06 05:07 54.38347 17.87460 7372 ft 244 kts 342°
2026-05-06 05:07 54.39950 17.86571 7356 ft 241 kts 342°
2026-05-06 05:07 54.41546 17.85686 7363 ft 241 kts 342°
2026-05-06 05:07 54.43160 17.84900 7321 ft 241 kts 354°
2026-05-06 05:08 54.44794 17.85252 7147 ft 238 kts 21°
2026-05-06 05:08 54.46339 17.86271 6947 ft 238 kts 21°
2026-05-06 05:08 54.47883 17.87310 6689 ft 238 kts 22°
2026-05-06 05:08 54.49341 17.88593 6412 ft 235 kts 41°
2026-05-06 05:09 54.50256 17.90858 6112 ft 232 kts 72°
2026-05-06 05:09 54.50400 17.93568 5846 ft 228 kts 99°
2026-05-06 05:09 54.49933 17.96150 5601 ft 225 kts 110°
2026-05-06 05:09 54.49373 17.98654 5334 ft 223 kts 110°
2026-05-06 05:10 54.48804 18.01128 5071 ft 220 kts 111°
2026-05-06 05:10 54.48253 18.03483 4954 ft 211 kts 111°
2026-05-06 05:10 54.47703 18.05809 4644 ft 210 kts 111°
2026-05-06 05:10 54.47149 18.08125 4345 ft 207 kts 111°
2026-05-06 05:11 54.46607 18.10381 4063 ft 200 kts 111°
2026-05-06 05:11 54.46088 18.12529 3897 ft 189 kts 111°
2026-05-06 05:11 54.45589 18.14590 3780 ft 185 kts 111°
2026-05-06 05:11 54.45096 18.16628 3678 ft 184 kts 110°
2026-05-06 05:12 54.44605 18.18657 3555 ft 183 kts 110°
2026-05-06 05:12 54.44116 18.20674 3435 ft 182 kts 110°
2026-05-06 05:12 54.43628 18.22684 3206 ft 181 kts 110°
2026-05-06 05:12 54.43151 18.24650 2945 ft 170 kts 110°
2026-05-06 05:13 54.42713 18.26446 2807 ft 159 kts 110°
2026-05-06 05:13 54.42292 18.28172 2684 ft 155 kts 110°
2026-05-06 05:13 54.41877 18.29868 2549 ft 151 kts 110°
2026-05-06 05:13 54.41473 18.31518 2427 ft 149 kts 110°
2026-05-06 05:14 54.41075 18.33144 2233 ft 145 kts 109°
2026-05-06 05:14 54.40705 18.34643 1965 ft 128 kts 109°
2026-05-06 05:14 54.40373 18.35996 1736 ft 122 kts 109°
2026-05-06 05:14 54.40047 18.37324 1531 ft 120 kts 109°
2026-05-06 05:15 54.39721 18.38651 1416 ft 124 kts 109°
2026-05-06 05:15 54.39357 18.40024 1225 ft 129 kts 110°
2026-05-06 05:15 54.39015 18.41463 1022 ft 130 kts 107°
2026-05-06 05:15 54.38675 18.42932 782 ft 136 kts 107°
2026-05-06 05:16 54.38302 18.44423 615 ft 134 kts 108°
2026-05-06 05:16 54.37939 18.45890 460 ft 127 kts 109°
2026-05-06 05:16 54.37650 18.47061 461 ft 85 kts 111°
2026-05-06 05:16 54.37462 18.47818 471 ft 63 kts 113°
2026-05-06 05:17 54.37318 18.48400 486 ft 28 kts 113°
2026-05-06 05:17 54.37316 18.48588 487 ft 13 kts 42°
2026-05-06 05:17 54.37382 18.48646 493 ft 12 kts 20°
2026-05-06 05:17 54.37454 18.48572 487 ft 16 kts 292°
2026-05-06 05:18 54.37514 18.48327 481 ft 29 kts 292°
2026-05-06 05:18 54.37586 18.48033 471 ft 27 kts 293°
2026-05-06 05:18 54.37658 18.47745 469 ft 26 kts 292°
2026-05-06 05:18 54.37720 18.47492 463 ft 22 kts 293°
2026-05-06 05:19 54.37787 18.47225 462 ft 23 kts 291°
2026-05-06 05:19 54.37850 18.46969 459 ft 25 kts 293°
2026-05-06 05:19 54.37911 18.46722 460 ft 16 kts 292°
2026-05-06 05:19 54.37958 18.46591 462 ft 12 kts 334°
2026-05-06 05:20 54.38038 18.46617 462 ft 11 kts
2026-05-06 05:20 54.38090 18.46519 462 ft 13 kts 293°
2026-05-06 05:20 54.38130 18.46354 462 ft 16 kts 292°
2026-05-06 05:20 54.38161 18.46238 461 ft 3 kts 312°
2026-05-06 05:21 54.38187 18.46239 462 ft 3 kts 20°
2026-05-06 05:21 54.38204 18.46251 462 ft 2 kts 23°
2026-05-06 05:21 54.38208 18.46253 462 ft 0 kts 23°